Time,TemperatureF,DewpointF,PressureIn,WindDirection,WindDirectionDegrees,WindSpeedMPH,WindSpeedGustMPH,Humidity,HourlyPrecipIn,Conditions,Clouds,dailyrainin,SoftwareType,DateUTC
2013-01-28 00:09:00,32.2,29.0,30.21,ESE,102,2.0,8.0,89,0.04,,,0.19,weatherlink.com 1.10,2013-01-28 05:09:00,
2013-01-28 00:24:00,32.4,30.0,30.20,ESE,102,7.0,8.0,89,0.04,,,0.01,weatherlink.com 1.10,2013-01-28 05:24:00,
2013-01-28 00:39:00,32.6,30.0,30.20,ESE,102,6.0,7.0,89,0.04,,,0.02,weatherlink.com 1.10,2013-01-28 05:39:00,
2013-01-28 00:54:00,32.9,30.0,30.18,ESE,102,6.0,8.0,90,0.05,,,0.04,weatherlink.com 1.10,2013-01-28 05:54:00,
2013-01-28 01:09:00,33.2,31.0,30.18,ESE,102,6.0,9.0,90,0.05,,,0.05,weatherlink.com 1.10,2013-01-28 06:09:00,
2013-01-28 01:24:00,33.2,31.0,30.18,ESE,102,3.0,7.0,90,0.05,,,0.06,weatherlink.com 1.10,2013-01-28 06:24:00,
2013-01-28 01:39:00,33.2,31.0,30.16,ESE,102,5.0,7.0,90,0.05,,,0.07,weatherlink.com 1.10,2013-01-28 06:39:00,
2013-01-28 01:54:00,33.2,31.0,30.15,ESE,102,5.0,10.0,90,0.04,,,0.08,weatherlink.com 1.10,2013-01-28 06:54:00,
2013-01-28 02:09:00,33.3,31.0,30.15,ESE,102,5.0,8.0,90,0.03,,,0.08,weatherlink.com 1.10,2013-01-28 07:09:00,
2013-01-28 02:24:00,33.4,31.0,30.15,ESE,102,2.0,9.0,90,0.03,,,0.09,weatherlink.com 1.10,2013-01-28 07:24:00,
2013-01-28 02:40:00,33.5,31.0,30.16,ESE,102,1.0,6.0,91,0.02,,,0.09,weatherlink.com 1.10,2013-01-28 07:40:00,
2013-01-28 02:55:00,33.6,31.0,30.16,ESE,102,0.0,7.0,90,0.02,,,0.10,weatherlink.com 1.10,2013-01-28 07:55:00,
2013-01-28 03:10:00,33.6,31.0,30.15,ESE,103,1.0,7.0,91,0.02,,,0.10,weatherlink.com 1.10,2013-01-28 08:10:00,
2013-01-28 03:25:00,33.7,31.0,30.15,ESE,103,0.0,6.0,91,0.01,,,0.10,weatherlink.com 1.10,2013-01-28 08:25:00,
2013-01-28 03:40:00,33.6,31.0,30.14,ESE,103,2.0,3.0,91,0.01,,,0.10,weatherlink.com 1.10,2013-01-28 08:40:00,
2013-01-28 03:55:00,33.7,31.0,30.13,ESE,103,2.0,6.0,91,0.00,,,0.10,weatherlink.com 1.10,2013-01-28 08:55:00,
2013-01-28 04:10:00,33.8,32.0,30.13,ESE,104,2.0,6.0,91,0.01,,,0.11,weatherlink.com 1.10,2013-01-28 09:10:00,
2013-01-28 04:26:00,34.0,32.0,30.12,SSE,148,4.0,6.0,91,0.01,,,0.11,weatherlink.com 1.10,2013-01-28 09:26:00,
2013-01-28 04:40:00,34.1,32.0,30.10,SE,128,5.0,8.0,91,0.01,,,0.11,weatherlink.com 1.10,2013-01-28 09:40:00,
2013-01-28 04:55:00,34.4,32.0,30.10,South,172,0.0,7.0,91,0.02,,,0.12,weatherlink.com 1.10,2013-01-28 09:55:00,
2013-01-28 05:10:00,34.7,32.0,30.10,WSW,246,3.0,7.0,91,0.01,,,0.12,weatherlink.com 1.10,2013-01-28 10:10:00,
2013-01-28 05:26:00,35.4,33.0,30.09,SW,220,3.0,12.0,91,0.02,,,0.13,weatherlink.com 1.10,2013-01-28 10:26:00,
2013-01-28 05:40:00,35.4,33.0,30.09,South,175,3.0,8.0,91,0.02,,,0.13,weatherlink.com 1.10,2013-01-28 10:40:00,
2013-01-28 05:55:00,35.6,33.0,30.09,South,179,1.0,6.0,91,0.01,,,0.13,weatherlink.com 1.10,2013-01-28 10:55:00,
2013-01-28 06:10:00,35.9,34.0,30.08,SSE,148,0.0,7.0,91,0.02,,,0.14,weatherlink.com 1.10,2013-01-28 11:10:00,
2013-01-28 06:25:00,36.5,34.0,30.08,SSE,167,2.0,7.0,92,0.01,,,0.14,weatherlink.com 1.10,2013-01-28 11:25:00,
2013-01-28 06:40:00,36.9,35.0,30.08,SSW,198,4.0,8.0,92,0.01,,,0.14,weatherlink.com 1.10,2013-01-28 11:40:00,
2013-01-28 06:56:00,37.4,35.0,30.07,South,175,0.0,7.0,92,0.01,,,0.14,weatherlink.com 1.10,2013-01-28 11:56:00,
2013-01-28 07:11:00,37.7,36.0,30.07,South,182,4.0,7.0,92,0.01,,,0.15,weatherlink.com 1.10,2013-01-28 12:11:00,
2013-01-28 07:26:00,37.8,36.0,30.06,South,179,2.0,7.0,92,0.01,,,0.15,weatherlink.com 1.10,2013-01-28 12:26:00,
2013-01-28 07:41:00,37.9,36.0,30.06,SSE,168,0.0,5.0,92,0.01,,,0.15,weatherlink.com 1.10,2013-01-28 12:41:00,
2013-01-28 07:56:00,38.1,36.0,30.06,SSW,213,2.0,4.0,92,0.01,,,0.15,weatherlink.com 1.10,2013-01-28 12:56:00,
2013-01-28 08:11:00,38.2,36.0,30.06,South,181,0.0,4.0,92,0.00,,,0.15,weatherlink.com 1.10,2013-01-28 13:11:00,
2013-01-28 08:27:00,38.6,37.0,30.06,SSW,192,2.0,7.0,92,0.01,,,0.16,weatherlink.com 1.10,2013-01-28 13:27:00,
2013-01-28 08:41:00,39.4,37.0,30.06,South,181,3.0,7.0,92,0.01,,,0.16,weatherlink.com 1.10,2013-01-28 13:41:00,
2013-01-28 08:56:00,40.2,38.0,30.06,SW,221,4.0,7.0,92,0.01,,,0.16,weatherlink.com 1.10,2013-01-28 13:56:00,
2013-01-28 09:11:00,40.9,39.0,30.06,South,181,6.0,12.0,92,0.03,,,0.18,weatherlink.com 1.10,2013-01-28 14:11:00,
2013-01-28 10:22:00,41.7,39.0,30.06,SSW,204,5.0,9.0,91,0.02,,,0.22,weatherlink.com 1.10,2013-01-28 15:22:00,
2013-01-28 10:42:00,42.3,40.0,30.06,SSW,200,7.0,11.0,91,0.00,,,0.22,weatherlink.com 1.10,2013-01-28 15:42:00,
2013-01-28 10:57:00,42.8,40.0,30.06,SW,218,7.0,11.0,91,0.00,,,0.22,weatherlink.com 1.10,2013-01-28 15:57:00,
2013-01-28 11:12:00,43.3,41.0,30.06,SSW,200,5.0,11.0,91,0.00,,,0.22,weatherlink.com 1.10,2013-01-28 16:12:00,
2013-01-28 11:27:00,44.0,42.0,30.06,SW,215,7.0,11.0,91,0.00,,,0.22,weatherlink.com 1.10,2013-01-28 16:27:00,
2013-01-28 11:42:00,44.7,42.0,30.05,South,190,5.0,10.0,91,0.00,,,0.22,weatherlink.com 1.10,2013-01-28 16:42:00,
2013-01-28 11:57:00,45.4,43.0,30.05,SSW,196,7.0,12.0,91,0.00,,,0.22,weatherlink.com 1.10,2013-01-28 16:57:00,
2013-01-28 12:13:00,45.9,43.0,30.04,SSW,211,6.0,14.0,90,0.00,,,0.22,weatherlink.com 1.10,2013-01-28 17:13:00,
2013-01-28 12:27:00,46.3,44.0,30.04,SW,229,5.0,11.0,90,0.00,,,0.22,weatherlink.com 1.10,2013-01-28 17:27:00,
2013-01-28 12:42:00,46.8,44.0,30.03,SW,215,12.0,13.0,89,0.00,,,0.22,weatherlink.com 1.10,2013-01-28 17:42:00,
2013-01-28 12:57:00,47.4,44.0,30.02,SW,217,5.0,18.0,89,0.00,,,0.22,weatherlink.com 1.10,2013-01-28 17:57:00,
2013-01-28 13:12:00,48.1,45.0,30.01,SW,229,9.0,17.0,89,0.00,,,0.22,weatherlink.com 1.10,2013-01-28 18:12:00,
2013-01-28 13:27:00,48.6,45.0,30.00,SW,227,9.0,15.0,88,0.00,,,0.22,weatherlink.com 1.10,2013-01-28 18:27:00,
2013-01-28 13:43:00,48.9,46.0,30.00,SW,221,7.0,15.0,88,0.00,,,0.22,weatherlink.com 1.10,2013-01-28 18:43:00,
2013-01-28 13:58:00,49.0,46.0,30.00,SW,235,4.0,14.0,88,0.00,,,0.22,weatherlink.com 1.10,2013-01-28 18:58:00,
2013-01-28 14:13:00,49.2,46.0,29.99,SW,236,8.0,18.0,88,0.00,,,0.22,weatherlink.com 1.10,2013-01-28 19:13:00,
2013-01-28 14:28:00,49.5,46.0,29.99,SW,235,8.0,20.0,89,0.00,,,0.22,weatherlink.com 1.10,2013-01-28 19:28:00,
2013-01-28 14:43:00,50.1,47.0,29.98,WSW,244,12.0,18.0,89,0.00,,,0.22,weatherlink.com 1.10,2013-01-28 19:43:00,
2013-01-28 14:59:00,50.4,47.0,29.98,WSW,237,9.0,19.0,88,0.00,,,0.22,weatherlink.com 1.10,2013-01-28 19:59:00,
2013-01-28 15:13:00,50.5,47.0,29.98,WSW,240,8.0,14.0,88,0.00,,,0.22,weatherlink.com 1.10,2013-01-28 20:13:00,
2013-01-28 15:28:00,50.8,48.0,29.99,South,190,8.0,16.0,91,0.00,,,0.22,weatherlink.com 1.10,2013-01-28 20:28:00,
2013-01-28 15:43:00,50.6,47.0,29.99,SW,215,8.0,18.0,87,0.00,,,0.22,weatherlink.com 1.10,2013-01-28 20:43:00,
2013-01-28 15:58:00,50.5,47.0,29.99,SSW,205,5.0,14.0,88,0.00,,,0.22,weatherlink.com 1.10,2013-01-28 20:58:00,
2013-01-28 16:13:00,50.4,47.0,30.00,SSW,196,9.0,13.0,88,0.00,,,0.22,weatherlink.com 1.10,2013-01-28 21:13:00,
2013-01-28 16:28:00,50.2,47.0,30.00,WSW,258,10.0,12.0,88,0.00,,,0.22,weatherlink.com 1.10,2013-01-28 21:28:00,
2013-01-28 16:43:00,50.1,47.0,30.00,SW,235,11.0,15.0,89,0.00,,,0.22,weatherlink.com 1.10,2013-01-28 21:43:00,
2013-01-28 16:58:00,50.0,47.0,30.00,SSW,192,8.0,13.0,89,0.00,,,0.22,weatherlink.com 1.10,2013-01-28 21:58:00,
2013-01-28 17:13:00,49.8,47.0,30.01,SW,221,3.0,12.0,89,0.00,,,0.22,weatherlink.com 1.10,2013-01-28 22:13:00,
2013-01-28 17:28:00,49.6,47.0,30.01,WSW,239,4.0,14.0,90,0.00,,,0.22,weatherlink.com 1.10,2013-01-28 22:28:00,
2013-01-28 17:43:00,49.6,47.0,30.01,SW,229,6.0,11.0,90,0.00,,,0.22,weatherlink.com 1.10,2013-01-28 22:43:00,
2013-01-28 17:58:00,49.6,47.0,30.01,SSW,211,8.0,12.0,90,0.00,,,0.22,weatherlink.com 1.10,2013-01-28 22:58:00,
2013-01-28 18:13:00,49.6,47.0,30.01,South,178,4.0,14.0,90,0.00,,,0.22,weatherlink.com 1.10,2013-01-28 23:13:00,
2013-01-28 18:29:00,49.5,47.0,30.02,SW,235,5.0,11.0,91,0.00,,,0.22,weatherlink.com 1.10,2013-01-28 23:29:00,
2013-01-28 18:44:00,49.4,47.0,30.02,SW,219,4.0,11.0,91,0.00,,,0.22,weatherlink.com 1.10,2013-01-28 23:44:00,
2013-01-28 18:59:00,49.3,47.0,30.02,SW,225,8.0,12.0,91,0.00,,,0.22,weatherlink.com 1.10,2013-01-28 23:59:00,
2013-01-28 19:14:00,49.3,47.0,30.03,SW,219,4.0,13.0,91,0.00,,,0.22,weatherlink.com 1.10,2013-01-29 00:14:00,
2013-01-28 19:29:00,49.2,47.0,30.02,WSW,237,6.0,9.0,91,0.00,,,0.22,weatherlink.com 1.10,2013-01-29 00:29:00,
2013-01-28 19:59:00,49.1,47.0,30.02,WSW,244,4.0,12.0,91,0.00,,,0.22,weatherlink.com 1.10,2013-01-29 00:59:00,
2013-01-28 20:14:00,49.0,47.0,30.02,SW,225,4.0,13.0,91,0.00,,,0.22,weatherlink.com 1.10,2013-01-29 01:14:00,
2013-01-28 20:29:00,49.0,47.0,30.02,WSW,244,7.0,13.0,92,0.00,,,0.22,weatherlink.com 1.10,2013-01-29 01:29:00,
2013-01-28 20:44:00,48.9,47.0,30.02,SW,231,6.0,12.0,92,0.00,,,0.22,weatherlink.com 1.10,2013-01-29 01:44:00,
2013-01-28 20:59:00,48.9,47.0,30.02,SSW,210,3.0,12.0,92,0.00,,,0.22,weatherlink.com 1.10,2013-01-29 01:59:00,
2013-01-28 21:14:00,48.9,47.0,30.01,SW,215,4.0,11.0,92,0.00,,,0.22,weatherlink.com 1.10,2013-01-29 02:14:00,
2013-01-28 21:31:00,48.9,47.0,30.01,SSW,213,4.0,13.0,92,0.00,,,0.22,weatherlink.com 1.10,2013-01-29 02:31:00,
2013-01-28 21:44:00,48.9,47.0,30.02,WSW,237,6.0,12.0,92,0.00,,,0.22,weatherlink.com 1.10,2013-01-29 02:44:00,
2013-01-28 21:59:00,49.0,47.0,30.01,SSW,213,8.0,11.0,92,0.00,,,0.22,weatherlink.com 1.10,2013-01-29 02:59:00,
2013-01-28 22:14:00,49.1,47.0,30.01,SW,224,7.0,13.0,92,0.00,,,0.22,weatherlink.com 1.10,2013-01-29 03:14:00,
2013-01-28 22:29:00,49.1,47.0,30.01,SW,221,4.0,12.0,92,0.00,,,0.22,weatherlink.com 1.10,2013-01-29 03:29:00,
2013-01-28 22:44:00,49.2,47.0,30.01,SW,231,9.0,12.0,92,0.00,,,0.22,weatherlink.com 1.10,2013-01-29 03:44:00,
2013-01-28 22:59:00,49.2,47.0,30.01,SSW,200,5.0,11.0,92,0.00,,,0.22,weatherlink.com 1.10,2013-01-29 03:59:00,
2013-01-28 23:15:00,49.3,47.0,30.02,SW,219,8.0,12.0,92,0.00,,,0.22,weatherlink.com 1.10,2013-01-29 04:15:00,
2013-01-28 23:30:00,49.4,47.0,30.02,SSW,206,6.0,11.0,92,0.00,,,0.22,weatherlink.com 1.10,2013-01-29 04:30:00,
2013-01-28 23:46:00,49.4,47.0,30.02,SW,220,4.0,11.0,92,0.00,,,0.22,weatherlink.com 1.10,2013-01-29 04:46:00,